Flag for Mexico Weather past 2 weeks in Cancún, Quintana Roo, Mexico

Now
81 °F

Scattered clouds.


Feels Like: 83 °F
Forecast: 74 / 83 °F
Wind: 17 mph from East

Location: Cancun International Airport

Current Time: Mar 30, 2015 at 12:57:15 PM

Latest Report: Mar 30, 2015 at 11:47 AM


Visibility: 7 mi

Pressure: 30.18 "Hg

Humidity: 66%

Dew point: 68 °F

Location of CancúnLocation

Historic Weather in Cancún — Graph

°F

Cancún temperature yesterday

Maximum temperature yesterday: 81 °F (at 2:47 PM)
Minimum temperature yesterday: 73 °F (at 7:40 PM)
Average temperature yesterday: 77 °F

Past Weeks' High & Low Weather Summary

 TemperatureHumidityPressure
High88 °F (Mar 25, 12:43 PM)100% (Mar 17, 5:46 AM)30.23 "Hg (Mar 17, 5:46 AM)
Low66 °F (Mar 17, 4:47 AM)48% (Mar 28, 1:41 PM)29.89 "Hg (Mar 27, 3:48 PM)
Average78 °F77%30.04 "Hg
* Reported Mar 15 11:47 AM — Mar 30 11:47 AM, Cancún, Weather by CustomWeather, © 2015

Note: Actual official high and low records may vary slightly from our data, if they occured in-between our weather recording intervals... More about our weather records

Advertising

Cancún weather history for previous 24 hours

 ConditionsComfort  
Time TempWeatherWind HumidityBarometerVisibility
11:47 AM
Mon, Mar 30
81 °FScattered clouds.17 mph66%30.18 "Hg7 mi
10:40 AM82 °FScattered clouds.13 mph58%30.18 "Hg7 mi
9:47 AM81 °FScattered clouds.16 mph66%30.13 "Hg7 mi
8:43 AM79 °FBroken clouds.9 mph65%30.15 "Hg7 mi
7:45 AM77 °FBroken clouds.6 mph79%30.14 "Hg7 mi
6:49 AM75 °FBroken clouds.7 mph83%30.09 "Hg7 mi
5:47 AM75 °FPartly cloudy.8 mph78%30.11 "Hg7 mi
4:47 AM75 °FPartly cloudy.12 mph78%30.10 "Hg7 mi
3:53 AM77 °FPartly cloudy.9 mph74%30.07 "Hg7 mi
2:43 AM79 °FPartly cloudy.9 mph70%30.11 "Hg7 mi
1:46 AM79 °FPartly cloudy.8 mph61%30.14 "Hg7 mi
12:47 AM77 °FPartly cloudy.5 mph74%30.12 "Hg7 mi
11:46 PM
Sun, Mar 29
77 °FPartly cloudy.8 mph74%30.17 "Hg7 mi
9:46 PM75 °FPartly cloudy.5 mph69%30.14 "Hg7 mi
7:40 PM73 °FPassing clouds.5 mph65%30.15 "Hg7 mi
6:47 PM77 °FScattered clouds.6 mph57%30.12 "Hg7 mi
3:46 PM79 °FScattered clouds.13 mph51%30.11 "Hg7 mi
2:47 PM81 °FScattered clouds.12 mph51%30.17 "Hg7 mi
1:49 PM79 °FScattered clouds.15 mph54%30.19 "Hg7 mi
12:50 PM79 °FBroken clouds.13 mph58%30.18 "Hg7 mi
Weather by CustomWeather, © 2015

See weather overviewHow to use our weather pages